Effective Sunday, March 17, 2024, the National Weather Service National Data Buoy Center will discontinue its Dial-A-Buoy Interactive Voice Response system. For more information, see Service Change Notice 24-06 (PDF).

Station RLIT2 - 8779280 - Realitos Peninsula, TX Image indicating link to RSS feed of recent meteorological observations for station RLIT2


Conditions at RLIT2 as of
(8:18 pm CST on 02/23/2024)
0218 GMT on 02/24/2024:
     

Click on the graph icon in the table below to see a time series plot of the last five days of that observation.

5-day plot - Wind Direction Wind Direction (WDIR):ENE ( 60 deg true )
5-day plot - Wind Speed Wind Speed (WSPD): 12.0 kts
5-day plot - Wind Gust Wind Gust (GST): 14.0 kts
5-day plot - Atmospheric Pressure Atmospheric Pressure (PRES):30.03 in
5-day plot - Air Temperature Air Temperature (ATMP): 68.2 °F
5-day plot - Water Temperature Water Temperature (WTMP): 70.3 °F
5-day plot - Wind Speed at 10 Meters Wind Speed at 10 meters (WSPD10M): 11.7 kts
5-day plot - Wind Speed at 20 Meters Wind Speed at 20 meters (WSPD20M): 13.6 kts
5-day plot -  Wind Speed, Wind Gust and Atmospheric Pressure Combined plot of Wind Speed, Gust, and Air Pressure
Previous observations
TIME
(CST)
5-day plot - Wind Direction
WDIR
 
5-day plot - Wind Speed
WSPD
kts
5-day plot - Wind Gust
GST
kts
5-day plot - Wave Height
WVHT
ft
5-day plot - Dominant Wave Period
DPD
sec
5-day plot - Average Wave Period
APD
sec
5-day plot - Mean Wave Direction
MWD
 
5-day plot - Atmospheric Pressure
PRES
in
5-day plot - Pressure Tendency
PTDY
in
5-day plot - Air Temperature
ATMP
°F
5-day plot - Water Temperature
WTMP
°F
5-day plot - Dew Point
DEWP
°F
5-day plot - Salinity
SAL
psu
5-day plot - Visibility
VIS
nmi
5-day plot - Tide (above MLLW)
TIDE
ft
2024-02-23 08:12 pmENE 12.0 13.0----30.04- 68.5 70.5----
2024-02-23 08:06 pm NE 12.0 13.0----30.04- 68.4 70.5----
2024-02-23 08:00 pm NE 11.1 13.0----30.04+0.04 68.2 70.7----
2024-02-23 07:54 pm NE 12.0 13.0----30.04- 68.0 70.7----
2024-02-23 07:48 pm NE 12.0 13.0----30.03- 68.0 70.7----
2024-02-23 07:42 pm NE 12.0 13.0----30.03- 68.0 70.5----
2024-02-23 07:36 pm NE 12.0 14.0----30.03- 68.2 70.5----
2024-02-23 07:30 pm NE 12.0 14.0----30.03-------
2024-02-23 07:24 pm NE 12.0 14.0----30.03-------
2024-02-23 07:18 pm NE 12.0 14.0----30.03-- 70.7----
2024-02-23 07:12 pm NE 13.0 15.0----30.02-- 70.9----
2024-02-23 07:06 pm NE 12.0 14.0----30.03-- 70.9----
2024-02-23 07:00 pm NE 13.0 15.0----30.03+0.03- 71.1----
2024-02-23 06:54 pm NE 13.0 15.9----30.02-- 71.1----
2024-02-23 06:48 pm NE 13.0 17.1----30.02-- 71.2----
2024-02-23 06:42 pmNNE 13.0 17.1----30.02-- 71.6----
2024-02-23 06:36 pm NE 14.0 17.1----30.01-- 71.8----
2024-02-23 06:30 pmNNE 14.0 17.1----30.01-- 72.0----
2024-02-23 06:24 pmNNE 15.0 17.1----30.01-- 72.3----
2024-02-23 06:18 pmNNE 15.0 15.9----30.02-- 72.5----
2024-02-23 06:12 pmNNE 14.0 17.1----30.01-- 72.9----
2024-02-23 06:06 pmNNE 15.9 17.1----30.01-- 73.4----
2024-02-23 06:00 pmNNE 14.0 17.1----30.01+0.01------
2024-02-23 05:54 pmNNE 15.0 17.1----30.01-------
2024-02-23 05:48 pmNNE 15.0 17.1----30.01- 68.5 74.7----
2024-02-23 05:42 pmNNE 14.0 15.9----30.01- 68.4 75.2----
2024-02-23 05:36 pmNNE 15.9 17.1----30.01- 68.2 75.4----
2024-02-23 05:30 pmNNE 15.0 18.1----30.01- 68.4 75.7----
2024-02-23 05:24 pmNNE 15.0 18.1----30.01- 68.5 75.7----
2024-02-23 05:18 pmNNE 15.9 18.1----30.01-- 75.9----
2024-02-23 05:12 pmNNE 15.0 18.1----30.00-- 75.9----
2024-02-23 05:06 pmNNE 14.0 15.9----30.00-- 75.9----
2024-02-23 05:00 pmNNE 14.0 15.9----30.00-0.01 69.1 76.1----
2024-02-23 04:54 pmNNE 14.0 15.9----30.00- 69.4 76.1----
2024-02-23 04:48 pmNNE 13.0 15.9----30.00- 69.8 76.1----
2024-02-23 04:42 pmNNE 14.0 15.9----30.00- 70.0 76.1----
2024-02-23 04:36 pmNNE 13.0 15.0----30.00- 70.3 76.1----
2024-02-23 04:30 pmNNE 14.0 15.9----30.00- 70.3 76.1----
2024-02-23 04:24 pmNNE 13.0 15.9----30.00- 70.0 76.1----
2024-02-23 04:18 pmNNE 13.0 15.9----30.00- 70.3 76.1----
2024-02-23 04:12 pm N 14.0 15.0----30.00- 70.3 76.1----
2024-02-23 04:06 pm N 12.0 15.0----30.01- 70.3 76.1----
2024-02-23 04:00 pmNNE 13.0 15.9----30.00-0.01 70.3 76.1----
2024-02-23 03:54 pmNNE 15.0 17.1----30.00- 70.0 76.1----
2024-02-23 03:48 pmNNE 15.0 17.1----29.99- 70.0 76.1----
2024-02-23 03:42 pmNNE 13.0 15.9----30.00- 70.2 76.1----
2024-02-23 03:36 pmNNE 13.0 15.0----30.00- 70.2 76.1----
2024-02-23 03:30 pmNNE 13.0 15.0----29.99- 70.3 75.9----
2024-02-23 03:24 pmNNE 14.0 17.1----29.99- 70.3 75.9----
2024-02-23 03:18 pmNNE 14.0 15.9----30.00- 70.2 75.7----
2024-02-23 03:12 pmNNE 14.0 15.0----30.00- 70.2 75.7----
2024-02-23 03:06 pmNNE 14.0 15.9----30.00- 70.2 75.6----
2024-02-23 03:00 pm N 14.0 15.9----30.00-0.03 70.0 75.4----
2024-02-23 02:54 pm N 14.0 15.9----30.00- 70.0 75.4----
2024-02-23 02:48 pmNNE 13.0 15.0----29.99- 69.8 75.2----
2024-02-23 02:42 pm N 13.0 15.0----30.00- 70.2 75.0----
2024-02-23 02:36 pmNNE 14.0 15.0----30.00- 70.0 74.8----
2024-02-23 02:30 pm N 13.0 15.0----30.00- 69.8 74.8----
2024-02-23 02:24 pm N 12.0 13.0----30.00- 69.8 74.7----
2024-02-23 02:18 pmNNE 13.0 14.0----30.01- 69.8 74.5----
2024-02-23 02:12 pmNNE 12.0 15.0----30.01- 69.6 74.5----
2024-02-23 02:06 pmNNE 13.0 15.9----30.01- 69.6 74.3----
2024-02-23 02:00 pmNNE 14.0 15.0----30.01-0.01 69.6 74.1----
2024-02-23 01:54 pm N 13.0 15.0----30.01- 69.6 73.9----
2024-02-23 01:48 pmNNE 14.0 17.1----30.01- 69.4 73.8----
2024-02-23 01:42 pm N 15.0 17.1----30.01- 69.4 73.6----
2024-02-23 01:36 pmNNE 15.0 17.1----30.01- 69.4 73.6----
2024-02-23 01:30 pm N 13.0 17.1----30.01- 69.1 73.4----
2024-02-23 01:24 pm N 15.9 18.1----30.02- 68.9 73.2----
2024-02-23 01:18 pm N 15.9 18.1----30.02- 68.9 73.2----
2024-02-23 01:12 pm N 17.1 19.0----30.01- 68.9 73.0----
2024-02-23 01:06 pm N 15.0 18.1----30.01- 68.7 72.9----
2024-02-23 01:00 pm N 15.0 19.0----30.01+0.00 68.7 72.9----
2024-02-23 12:54 pm N 15.9 18.1----30.01- 68.5 72.7----
2024-02-23 12:48 pm N 15.0 18.1----30.01- 68.2 72.5----
2024-02-23 12:42 pm N 15.9 19.0----30.01- 68.2 72.5----
2024-02-23 12:36 pm N 15.9 19.0----30.01- 68.5 72.5----
2024-02-23 12:30 pm N 15.9 20.0----30.02- 68.5 72.3----
2024-02-23 12:24 pm N 17.1 19.0----30.02- 68.7 72.1----
2024-02-23 12:18 pm N 17.1 19.0----30.02- 68.7 72.0----
2024-02-23 12:12 pm N 18.1 20.0----30.02- 68.4 71.8----
2024-02-23 12:06 pm N 15.9 19.0----30.02- 68.5 71.8----
2024-02-23 12:00 pm N 15.9 19.0----30.02+0.02 68.9 71.6----
2024-02-23 11:54 am N 15.0 18.1----30.03- 69.1 71.6----
2024-02-23 11:48 am N 15.0 17.1----30.03- 68.9 71.4----
2024-02-23 11:42 am N 15.0 18.1----30.03- 68.7 71.4----
2024-02-23 11:36 am N 15.9 19.0----30.03- 68.5 71.4----
2024-02-23 11:30 am N 17.1 18.1----30.03- 68.7 71.2----
2024-02-23 11:24 am N 15.0 18.1----30.03- 69.4 71.2----
2024-02-23 11:18 am N 15.9 19.0----30.03- 70.0 71.1----
2024-02-23 11:12 am N 15.9 19.0----30.03- 70.0 70.9----
2024-02-23 11:06 am N 17.1 19.0----30.03- 69.6 70.9----
2024-02-23 11:00 am N 17.1 20.0----30.02+0.04 69.6 70.7----
2024-02-23 10:54 am N 18.1 21.0----30.01- 69.6 70.7----
2024-02-23 10:48 am N 17.1 21.0----30.01- 69.6 70.7----
2024-02-23 10:42 am N 19.0 21.0----30.01- 69.6 70.7----
2024-02-23 10:36 am N 18.1 22.0----30.02- 69.6 70.5----
2024-02-23 10:30 am N 19.0 21.0----30.02- 69.6 70.5----
2024-02-23 10:24 am N 19.0 22.0----30.01- 69.3 70.3----
2024-02-23 10:18 am N 20.0 22.0----30.01- 69.1 70.3----
2024-02-23 10:12 am N 19.0 22.9----30.01- 69.3 70.3----
2024-02-23 10:06 am N 19.0 22.0----30.01- 69.1 70.2----
2024-02-23 10:00 am N 19.0 22.9----30.01+0.07 69.1 70.2----
2024-02-23 09:54 am N 18.1 21.0----30.01- 69.1 70.2----
2024-02-23 09:48 am N 18.1 20.0----30.01- 68.9 70.2----
2024-02-23 09:42 am N 19.0 22.0----30.01- 68.7 70.0----
2024-02-23 09:36 am N 18.1 21.0----30.01- 68.5 70.0----
2024-02-23 09:30 am N 17.1 21.0----30.01- 68.5 70.0----
2024-02-23 09:24 am N 19.0 22.0----30.01- 68.4 70.0----
2024-02-23 09:18 am N 19.0 21.0----30.01- 68.4 70.0----
2024-02-23 09:12 am N 17.1 20.0----30.00- 68.4 70.0----
2024-02-23 09:06 am N 15.9 19.0----30.00- 68.4 70.0----
2024-02-23 09:00 am N 14.0 19.0----30.00+0.08 68.2 70.0----
2024-02-23 08:54 am N 15.0 18.1----30.00- 67.8 70.0----
2024-02-23 08:48 am N 14.0 17.1----30.00- 67.3 70.0----
2024-02-23 08:42 am N 14.0 15.9----29.99- 66.7 70.0----
2024-02-23 08:36 am N 14.0 17.1----29.99- 66.0 70.2----
2024-02-23 08:30 am N 14.0 17.1----29.99- 65.5 70.2----
2024-02-23 08:24 am N 13.0 15.0----29.98- 64.9 70.2----
2024-02-23 08:18 am N 12.0 15.0----29.98- 64.8 70.2----
2024-02-23 08:12 am N 12.0 14.0----29.98- 64.4 70.3----
2024-02-23 08:06 am N 12.0 14.0----29.97- 64.2 70.3----
2024-02-23 08:00 am N 12.0 15.0----29.97+0.10 63.9 70.3----
2024-02-23 07:54 am N 13.0 15.9----29.97- 63.7 70.5----
2024-02-23 07:48 am N 15.0 17.1----29.97- 63.3 70.7----
2024-02-23 07:42 am N 14.0 15.9----29.97- 63.5 70.7----
2024-02-23 07:36 am N 15.0 17.1----29.96- 63.3 70.7----
2024-02-23 07:30 am N 13.0 17.1----29.95- 63.9 70.9----
2024-02-23 07:24 am N 15.0 15.9----29.95- 63.7 70.9----
2024-02-23 07:18 am N 14.0 17.1----29.94- 63.5 71.1----
2024-02-23 07:12 am N 14.0 17.1----29.94- 63.5 71.1----
2024-02-23 07:06 am N 15.9 18.1----29.94- 63.3 71.2----
2024-02-23 07:00 am N 15.9 19.0----29.94+0.08 63.3 71.2----
2024-02-23 06:54 am N 15.0 19.0----29.94- 63.7 71.2----
2024-02-23 06:48 am N 17.1 19.0----29.93- 63.5 71.4----
2024-02-23 06:42 am N 15.0 18.1----29.93- 63.7 71.4----
2024-02-23 06:36 am N 14.0 17.1----29.93- 64.2 71.6----
2024-02-23 06:30 am N 15.0 18.1----29.93- 64.6 71.6----
2024-02-23 06:24 am N 15.0 18.1----29.93- 64.8 71.6----
2024-02-23 06:18 am N 14.0 17.1----29.93- 64.9 71.6----
2024-02-23 06:12 am N 14.0 17.1----29.92- 65.1 71.8----
2024-02-23 06:06 am N 14.0 18.1----29.92- 65.5 71.8----
2024-02-23 06:00 amNNW 13.0 15.9----29.92+0.08 66.2 71.8----
2024-02-23 05:54 am N 13.0 14.0----29.92- 65.7 71.8----
2024-02-23 05:48 amNNW 11.1 14.0----29.91- 65.7 72.0----
2024-02-23 05:42 am NW 8.0 13.0----29.91- 65.5 72.0----
2024-02-23 05:36 amNNW 8.9 12.0----29.90- 65.3 72.0----
2024-02-23 05:30 amNNW 8.0 9.9----29.90- 65.3 72.0----
2024-02-23 05:24 am NW 6.0 8.0----29.89- 65.1 72.0----
2024-02-23 05:18 am NW 6.0 8.0----29.88- 65.3 72.1----
2024-02-23 05:12 amWNW 2.9 4.1----29.87- 65.3 72.1----
2024-02-23 05:06 am NW 4.1 5.1----29.87- 65.5 72.1----
2024-02-23 05:00 am NW 4.1 5.1----29.87+0.03 65.7 72.1----
2024-02-23 04:54 amWNW 2.9 4.1----29.87- 65.5 72.1----
2024-02-23 04:48 am W 2.9 4.1----29.87- 65.5 72.1----
2024-02-23 04:42 am W 4.1 4.1----29.87- 65.7 72.3----
2024-02-23 04:36 am W 2.9 2.9----29.86- 65.8 72.3----
2024-02-23 04:30 am- 0.0 1.9----29.86- 65.8 72.3----
2024-02-23 04:24 amWSW 1.9 2.9----29.85- 66.0 72.3----
2024-02-23 04:18 am SW 2.9 4.1----29.85- 65.8 72.3----
2024-02-23 04:12 amWSW 1.9 5.1----29.86- 65.8 72.5----
2024-02-23 04:06 am SW 1.9 4.1----29.86- 66.0 72.5----
2024-02-23 04:00 am SW 4.1 5.1----29.86+0.01 66.2 72.5----
2024-02-23 03:54 am SW 4.1 5.1----29.85- 66.6 72.5----
2024-02-23 03:48 am SW 5.1 5.1----29.85- 66.7 72.7----
2024-02-23 03:42 amSSW 5.1 5.1----29.85- 66.9 72.7----
2024-02-23 03:36 amSSW 5.1 6.0----29.85- 67.1 72.7----
2024-02-23 03:30 am S 5.1 6.0----29.85- 67.5 72.7----
2024-02-23 03:24 amSSW 5.1 6.0----29.85- 67.8 72.7----
2024-02-23 03:18 amSSW 5.1 6.0----29.85- 68.4 72.9----
2024-02-23 03:12 am S 2.9 4.1----29.85- 68.4 72.9----
2024-02-23 03:06 am S 4.1 5.1----29.84- 68.7 72.9----
2024-02-23 03:00 am S 4.1 5.1----29.84+0.00 68.7 72.9----
2024-02-23 02:54 amSSE 5.1 5.1----29.84- 68.5 72.9----
2024-02-23 02:48 amSSE 4.1 5.1----29.84- 68.4 73.0----
2024-02-23 02:42 amSSE 5.1 6.0----29.84- 68.4 73.0----
2024-02-23 02:36 am S 5.1 6.0----29.84- 68.5 73.0----
2024-02-23 02:30 amSSE 5.1 6.0----29.84- 68.2 73.0----
2024-02-23 02:24 amSSE 4.1 5.1----29.84- 68.4 72.9----
2024-02-23 02:18 amSSE 5.1 5.1----29.84- 68.4 72.9----
2024-02-23 02:12 amSSE 4.1 5.1----29.84- 68.4 72.9----
2024-02-23 02:06 amSSE 4.1 6.0----29.84- 68.5 72.9----
2024-02-23 02:00 amSSE 5.1 6.0----29.84-0.01 68.9 72.7----
2024-02-23 01:54 amSSE 6.0 7.0----29.84- 68.9 72.5----
2024-02-23 01:48 amSSE 5.1 6.0----29.84- 68.9 72.5----
2024-02-23 01:42 am S 5.1 6.0----29.84- 69.3 72.3----
2024-02-23 01:36 amSSE 5.1 7.0----29.84- 69.1 72.1----
2024-02-23 01:30 amSSE 6.0 7.0----29.84- 69.6 72.0----
2024-02-23 01:24 am S 6.0 8.9----29.84- 69.8 72.0----
2024-02-23 01:18 am S 8.0 8.9----29.84- 69.6 71.8----
2024-02-23 01:12 am S 7.0 8.0----29.84- 69.8 71.6----
2024-02-23 01:06 am S 7.0 8.9----29.84- 69.8 71.2----
2024-02-23 01:00 am S 6.0 7.0----29.84+0.00 69.4 71.1----
2024-02-23 12:54 amSSE 2.9 5.1----29.85- 69.6 71.1----
2024-02-23 12:48 amSSE 4.1 7.0----29.85- 69.4 71.1----
2024-02-23 12:42 am S 6.0 7.0----29.84- 69.6 70.9----
2024-02-23 12:36 am S 6.0 7.0----29.84- 69.6 71.1----
2024-02-23 12:30 am S 5.1 6.0----29.85- 69.6 71.1----
2024-02-23 12:24 am S 5.1 6.0----29.85- 69.8 71.1----
2024-02-23 12:18 am S 6.0 7.0----29.85- 69.8 71.1----
2024-02-23 12:12 am S 6.0 6.0----29.85- 69.8 71.1----
2024-02-23 12:06 am S 5.1 6.0----29.85- 70.0 71.1----
2024-02-23 12:00 am S 5.1 6.0----29.85+0.03 70.0 71.1----
2024-02-22 11:54 pm S 5.1 6.0----29.85- 70.0 71.1----
2024-02-22 11:48 pm S 5.1 6.0----29.85- 70.0 71.1----
2024-02-22 11:42 pm S 6.0 7.0----29.85- 70.2 71.1----
2024-02-22 11:36 pmSSW 5.1 7.0----29.85- 70.2 71.1----
2024-02-22 11:30 pmSSW 5.1 8.0----29.85- 70.2 71.1----
2024-02-22 11:24 pmSSW 5.1 7.0----29.85- 70.0 71.1----
2024-02-22 11:18 pmSSW 5.1 6.0----29.85- 69.8 71.1----
2024-02-22 11:12 pmSSW 5.1 6.0----29.85- 69.8 71.1----
2024-02-22 11:06 pmSSW 4.1 4.1----29.85- 69.4 71.1----
2024-02-22 11:00 pm SW 2.9 5.1----29.85+0.04 69.6 71.1----
2024-02-22 10:54 pm SW 4.1 5.1----29.85- 69.8 71.1----
2024-02-22 10:48 pm SW 5.1 7.0----29.85- 69.8 71.1----
2024-02-22 10:42 pmSSW 6.0 7.0----29.85- 70.0 71.1----
2024-02-22 10:36 pmSSW 6.0 7.0----29.85- 70.0 71.1----
2024-02-22 10:30 pmSSW 5.1 7.0----29.85- 69.8 71.1----
2024-02-22 10:24 pmSSW 6.0 7.0----29.85- 69.8 71.1----
2024-02-22 10:18 pm SW 6.0 7.0----29.85- 69.8 71.1----
2024-02-22 10:12 pm SW 6.0 7.0----29.85- 70.3 71.2----
2024-02-22 10:06 pmSSW 6.0 9.9----29.85- 70.9 71.2----
2024-02-22 10:00 pm S 8.0 8.9----29.84+0.06 71.2 71.2----
2024-02-22 09:54 pm S 8.0 9.9----29.84- 71.4 71.2----
2024-02-22 09:48 pm S 8.0 9.9----29.84- 71.4 71.2----
2024-02-22 09:42 pm S 7.0 9.9----29.84- 71.4 71.2----
2024-02-22 09:36 pm S 7.0 8.0----29.83- 71.2 71.2----
2024-02-22 09:30 pm S 6.0 8.0----29.83- 71.2 71.4----
2024-02-22 09:24 pm S 6.0 8.0----29.83- 71.1 71.4----
2024-02-22 09:18 pm S 7.0 8.0----29.83- 71.2 71.4----
2024-02-22 09:12 pm S 8.0 8.9----29.83- 71.2 71.4----
2024-02-22 09:06 pm S 7.0 8.0----29.82- 71.2 71.4----
2024-02-22 09:00 pm S 7.0 8.9----29.82+0.06 71.2 71.4----
2024-02-22 08:54 pm S 8.0 9.9----29.82- 71.2 71.4----